Gig Harbor, WA

8:22 AM PST on December 06, 2016 (GMT -0800)
Tacoma Narrows

Weather History for KTIW - February, 2014

Change the Weather History Date:

Friday, February 21, 2014

  Actual Average Record
Temperature  
Mean Temperature 41 °F -  
Max Temperature 43 °F 47 °F 57 °F (2002)
Min Temperature 36 °F 36 °F 30 °F (2005)
Degree Days  
Heating Degree Days 24    
Moisture  
Dew Point 35 °F    
Average Humidity 79    
Maximum Humidity 89    
Minimum Humidity 68    
Precipitation  
Precipitation 0.00 in - - ()
Sea Level Pressure  
Sea Level Pressure 30.26 in    
Wind  
Wind Speed 8 mph (ESE)    
Max Wind Speed 16 mph    
Max Gust Speed 26 mph    
Visibility 10 miles    
Events Rain    
Averages and records for this station are not official NWS values.
T = Trace of Precipitation, MM = Missing Value Source: NWS Daily Summary

Daily Weather History Graph

Daily Weather History Graph

Search for Another Location

Airport or City:

Trip Planner

Search our weather history database for the weather conditions in past years. The results will help you decide how hot, cold, wet, or windy it might be!

Date:

Astronomy

Feb. 21, 2014 Rise Set
Actual Time 7:04 AM PST 5:43 PM PST
Civil Twilight 6:33 AM PST 6:14 PM PST
Nautical Twilight 5:58 AM PST 6:50 PM PST
Astronomical Twilight 5:22 AM PST 7:25 PM PST
Moon 12:08 AM PST (2/21) 10:05 AM PST (2/21)
Length of Visible Light 11h 41m
Length of Day
10h 38m
Waning Gibbous, 59% of the Moon is Illuminated
Feb 21
Waning Gibbous
Feb 22
Last Quarter
Mar 1
New
Mar 8
First Quarter
Mar 16
Full

Hourly Weather History & Observations

Time (PST) Temp. Windchill Dew Point Humidity Pressure Visibility Wind Dir Wind Speed Gust Speed Precip Events Conditions
12:53 AM 42.1 °F 34.9 °F 36.0 °F 79% 30.21 in 10.0 mi South 13.8 mph 20.7 mph N/A   Scattered Clouds
1:53 AM 42.1 °F 34.5 °F 36.0 °F 79% 30.22 in 10.0 mi SSW 15.0 mph 24.2 mph N/A   Clear
2:53 AM 41.0 °F 32.8 °F 37.0 °F 86% 30.22 in 10.0 mi South 16.1 mph 26.5 mph N/A   Scattered Clouds
3:53 AM 42.1 °F 34.5 °F 37.0 °F 82% 30.23 in 10.0 mi South 15.0 mph 24.2 mph N/A   Overcast
4:50 AM 42.8 °F 35.1 °F 35.6 °F 76% 30.23 in 10.0 mi SSW 16.1 mph 20.7 mph N/A   Mostly Cloudy
4:53 AM 42.1 °F 36.1 °F 35.1 °F 76% 30.24 in 10.0 mi SSW 10.4 mph 20.7 mph N/A   Mostly Cloudy
5:53 AM 41.0 °F 37.1 °F 35.1 °F 79% 30.25 in 10.0 mi SSW 5.8 mph - N/A   Overcast
6:53 AM 39.9 °F 35.8 °F 34.0 °F 79% 30.27 in 10.0 mi SW 5.8 mph - N/A   Mostly Cloudy
7:53 AM 39.0 °F 36.8 °F 34.0 °F 82% 30.28 in 10.0 mi SSW 3.5 mph - N/A   Mostly Cloudy
8:53 AM 39.9 °F - 35.1 °F 83% 30.30 in 10.0 mi Calm Calm - N/A   Overcast
8:56 AM 39.9 °F - 35.1 °F 83% 30.28 in 10.0 mi Calm Calm - N/A   Overcast
9:02 AM 39.0 °F 36.8 °F 35.1 °F 86% 30.28 in 10.0 mi ENE 3.5 mph - N/A   Overcast
9:53 AM 39.0 °F 36.8 °F 34.0 °F 82% 30.30 in 10.0 mi ESE 3.5 mph - 0.00 in   Overcast
10:33 AM 39.9 °F 37.8 °F 36.0 °F 86% 30.30 in 10.0 mi Variable 3.5 mph - 0.00 in   Overcast
10:53 AM 39.9 °F 36.7 °F 36.0 °F 86% 30.31 in 10.0 mi NNE 4.6 mph - 0.00 in   Overcast
11:53 AM 41.0 °F - 35.1 °F 79% 30.30 in 10.0 mi Calm Calm - N/A   Overcast
12:53 PM 42.1 °F 39.2 °F 34.0 °F 73% 30.28 in 10.0 mi SE 4.6 mph - N/A   Mostly Cloudy
1:10 PM 43.0 °F 39.5 °F 36.0 °F 76% 30.27 in 10.0 mi NW 5.8 mph - N/A   Overcast
1:49 PM 42.8 °F 40.1 °F 35.6 °F 76% 30.27 in 10.0 mi North 4.6 mph - 0.00 in Rain Light Rain
1:53 PM 43.0 °F 40.3 °F 36.0 °F 76% 30.28 in 10.0 mi NNE 4.6 mph - 0.00 in Rain Light Rain
2:53 PM 42.1 °F 39.2 °F 34.0 °F 73% 30.27 in 10.0 mi NE 4.6 mph - 0.00 in   Mostly Cloudy
3:53 PM 43.0 °F 40.3 °F 33.1 °F 68% 30.27 in 10.0 mi NE 4.6 mph - N/A   Overcast
4:53 PM 41.0 °F 35.8 °F 35.1 °F 79% 30.26 in 10.0 mi NE 8.1 mph - N/A   Overcast
5:53 PM 39.9 °F 33.9 °F 34.0 °F 79% 30.26 in 10.0 mi North 9.2 mph - N/A   Overcast
6:53 PM 39.9 °F 36.7 °F 33.1 °F 77% 30.26 in 10.0 mi NNE 4.6 mph - 0.00 in   Overcast
7:53 PM 39.9 °F - 33.1 °F 77% 30.25 in 10.0 mi Calm Calm - N/A   Overcast
8:00 PM 39.9 °F - 33.1 °F 77% 30.24 in 10.0 mi Calm Calm - N/A   Overcast
8:53 PM 39.0 °F - 34.0 °F 82% 30.25 in 10.0 mi Calm Calm - N/A   Overcast
9:53 PM 39.0 °F - 33.1 °F 79% 30.26 in 10.0 mi Calm Calm - N/A   Overcast
10:48 PM 39.2 °F - 33.8 °F 81% 30.24 in 10.0 mi Calm Calm - N/A   Overcast
10:53 PM 39.0 °F - 33.1 °F 79% 30.25 in 10.0 mi Calm Calm - N/A   Overcast
11:53 PM 36.0 °F 33.3 °F 33.1 °F 89% 30.25 in 10.0 mi NW 3.5 mph - N/A   Scattered Clouds